User: anonymous   Login
Location: Mohawk View
(42.7837°N, 73.7885°W)
Time: 17:35:19
(UTC+00:00)
Language:

Helios 1A - Orbit

View from above orbital plane
View from above orbital plane
View from above satellite
View from above satellite

Ground track
Ground track

The orbit data is extracted from the following two-line orbital elements,

1 23605U 95033A   21250.99855014 0.00000340  00000-0  33883-4 0    06
2 23605  98.1924  17.1071 0012585  51.4483 308.5516 14.91596130    01
Epoch (UTC): 07 September 2021 23:57:54
Eccentricity: 0.0012585
inclination: 98.1924°
perigee height: 584 km
apogee height: 602 km
right ascension of ascending node: 17.1071°
argument of perigee: 51.4483°
revolutions per day: 14.91596130
mean anomaly at epoch: 308.5516°
orbit number at epoch: 0

The dashed part of the orbit path shows where the satellite is in the earth's shadow,  

DLR